AirNav   ATP
 
 1461 users online  

CA84 Torrey Pines Gliderport
San Diego, California, USA

GOING TO SAN DIEGO?


FAA INFORMATION EFFECTIVE 26 APRIL 2018

Location

FAA Identifier: CA84
Lat/Long: 32-53-23.0000N / 117-14-49.0000W
32-53.383333N / 117-14.816667W
32.8897222 / -117.2469444
(estimated)
Elevation: 372 ft. / 113 m (estimated)
Variation: 13E (1985)
From city: 11 miles NW of SAN DIEGO, CA
Time zone: UTC -7 (UTC -8 during Standard Time)
Zip code: 92037

Gliderport Operations

Gliderport use: Private use. Permission required prior to landing
Activation date: 11/1961
Control tower: no
ARTCC: LOS ANGELES CENTER
FSS: SAN DIEGO FLIGHT SERVICE STATION
Attendance: UNATNDD
Wind indicator: no
Segmented circle: no

Gliderport Communications

WX ASOS at MYF (7 nm SE): PHONE 858-576-4337
WX ASOS at SAN (10 nm S): PHONE 619-296-8934
WX AWOS-3P at SEE (14 nm E): 125.45 (619-449-1228)
WX ASOS at CRQ (14 nm N): PHONE 760-930-0864
WX ASOS at RNM (19 nm NE): 132.025 (760-789-0736)

Nearby radio navigation aids

VOR radial/distance  VOR name  Freq  Var
MZBr335/6.5MISSION BAY VORTAC117.8015E
PGYr307/21.5POGGI VORTAC109.8014E
OCNr143/22.7OCEANSIDE VORTAC115.3015E
TIJr311/25.7TIJUANA VOR/DME116.5014E
JLIr231/36.5JULIAN VORTAC114.0015E

Gliderport Services

Airframe service: NONE
Powerplant service: NONE

Runway Information

Runway 9/27

Dimensions: 1500 x 30 ft. / 457 x 9 m
Surface: asphalt
RUNWAY 9  RUNWAY 27
Traffic pattern: leftleft
Obstructions: nonetrees, 100 ft. from runway

Gliderport Ownership and Management from official FAA records

Ownership: Publicly-owned
Owner: CITY OF SAN DIEGO
Manager: JIM FROST
4740 HARBINSON AVE
LA MESA, CA 91941
Phone 619-461-9614
WORK PHONE 619-535-9505 EXT 1585

Additional Remarks

GLIDER PORT IS LEASED FM CITY TO THE ASSOCD GLIDER CLUB OF SOUTHERN CALIF FOR STUDENT TRAINING & RIDGE SOARING.
ALL ACFT ARE TRAILERED GLIDERS.
ROLLING RWY .6 PERCENT GRADIENT.
EXTENSIVE HANG GLIDER OPERATIONS ON WEEKENDS AND WEEKDAYS.

Instrument Procedures

There are no published instrument procedures at CA84.

Some nearby airports with instrument procedures:

KNKX - Miramar MCAS (Joe Foss Field) Airport (5 nm E)
KMYF - Montgomery-Gibbs Executive Airport (7 nm SE)
KSAN - San Diego International Airport (10 nm S)
KNZY - North Island Naval Air Station (Halsey Field) (12 nm S)
KSEE - Gillespie Field Airport (14 nm E)
KCRQ - Mc Clellan-Palomar Airport (14 nm N)
KRNM - Ramona Airport (19 nm NE)
 
Loc | Ops | Rwys | IFR | FBO | Links
Com | Nav | Svcs | Stats | Notes

AirNav Hotels Sweepstakes
 
Area around CA84 (Torrey Pines Gliderport)
 
Road maps at: MapQuest Bing Google
 
Aerial photo
WARNING: Photo may not be current or correct
Aerial photo of CA84 (Torrey Pines Gliderport)
Photo by Doug Fronius
Photo taken 13-Mar-2004
from a 1942 Schweizer TG-2 sailplane.

Do you have a better or more recent aerial photo of Torrey Pines Gliderport that you would like to share? If so, please send us your photo.

 
Sectional chart

 
Airport distance calculator
Flying to Torrey Pines Gliderport? Find the distance to fly.

From to CA84

Sunrise and sunset
Times for 26-Apr-2018
 Local
(UTC-7)
 Zulu
(UTC)
Morning civil twilight05:4212:42
Sunrise06:0813:08
Sunset19:2602:26
Evening civil twilight19:5202:52

Current date and time
Zulu (UTC)  26-Apr-2018 16:52:53
Local (UTC-7)  26-Apr-2018 09:52:53
 
METAR
KNKX 
6nm E 
261602Z VRB03KT 10SM OVC016 17/10 A3005 RMK AO2 T01670100 $
KMYF 
7nm SE 
261553Z VRB03KT 9SM OVC015 14/10 A3006 RMK AO2 SLP176 T01440100
KSAN 
10nm S 
261551Z 30007KT 10SM OVC019 16/11 A3007 RMK AO2 SLP182 T01610106
KNZY 
11nm S 
261552Z VRB05KT 10SM OVC019 16/10 A3005 RMK AO2 SLP175 T01560100 $
KCRQ 
15nm N 
261553Z 00000KT 10SM OVC016 14/11 A3004 RMK AO2 SLP172 T01440106
KSEE 
15nm E 
261550Z VRB05KT 7SM OVC013 14/11 A3006
KRNM 
19nm NE 
261617Z 26003KT 9SM SCT008 13/11 A3005 RMK AO2 T01280106
TAF
KNKX 
6nm E 
2615/2715 VRB05KT 9999 BKN020 QNH2999INS BECMG 2619/2621 29007KT 9999 SCT020 QNH2997INS FM270330 VRB05KT 9999 FEW200 QNH2998INS T21/2619Z T13/2713Z
KSAN 
10nm S 
261445Z 2615/2718 VRB03KT P6SM OVC018 FM261700 VRB04KT P6SM SCT020 SCT200 FM261900 29009KT P6SM SCT200 FM270300 31005KT P6SM OVC018 FM270900 VRB04KT P6SM OVC022 FM271700 VRB04KT P6SM SCT025
KNZY 
11nm S 
2615/2715 VRB06KT BKN017 522809 523705 QNH2997INS BECMG 2617/2619 29011KT 9999 SCT020 BKN250 522809 523705 QNH2993INS FM270300 VRB06KT 9999 OVC015 500000 QNH2996INS T18/2621Z T12/2712Z FS30022
KCRQ 
15nm N 
261122Z 2612/2712 VRB03KT P6SM OVC012 FM261700 VRB04KT P6SM SCT015 SCT200 FM261900 26008KT P6SM SCT200 FM270200 VRB04KT P6SM OVC015
NOTAMs
Click for the latest NOTAMs
NOTAMs are issued by the DoD/FAA and will open in a separate window not controlled by AirNav.

 

 
 

Would you like to see your business listed on this page?

 If your business provides an interesting product or service to pilots, flight crews, aircraft, or users of the Torrey Pines Gliderport, you should consider listing it here.  To start the listing process, click on the button below
 
Add a business
 

Other Pages about Torrey Pines Gliderport

www.agcsc.org/torrey_pines_info.html
 
Update a link
 
Copyright © AirNav, LLC. All rights reserved. Privacy Policy  Contact